Year,Month,Day,Hour,Minute,Value (Times are PST for temperature in C)
2006,09,14,00,00,10.90
2006,09,14,00,01,10.90
2006,09,14,00,02,10.90
2006,09,14,00,03,10.90
2006,09,14,00,04,10.90
2006,09,14,00,05,10.90
2006,09,14,00,06,10.90
2006,09,14,00,07,10.90
2006,09,14,00,08,11.00
2006,09,14,00,09,11.10
2006,09,14,00,10,11.10
2006,09,14,00,11,11.10
2006,09,14,00,12,11.10
2006,09,14,00,13,11.10
2006,09,14,00,14,11.10
2006,09,14,00,15,11.10
2006,09,14,00,16,11.10
2006,09,14,00,17,11.10
2006,09,14,00,18,11.10
2006,09,14,00,19,11.20
2006,09,14,00,20,11.20
2006,09,14,00,21,11.20
2006,09,14,00,22,11.20
2006,09,14,00,23,11.30
2006,09,14,00,24,11.30
2006,09,14,00,25,11.30
2006,09,14,00,26,11.30
2006,09,14,00,27,11.30
2006,09,14,00,28,11.30
2006,09,14,00,29,11.30
2006,09,14,00,30,11.30
2006,09,14,00,31,11.30
2006,09,14,00,32,11.30
2006,09,14,00,33,11.30
2006,09,14,00,34,11.30
2006,09,14,00,35,11.30
2006,09,14,00,36,11.30
2006,09,14,00,37,11.20
2006,09,14,00,38,11.20
2006,09,14,00,39,11.20
2006,09,14,00,40,11.20
2006,09,14,00,41,11.20
2006,09,14,00,42,11.20
2006,09,14,00,43,11.20
2006,09,14,00,44,11.20
2006,09,14,00,45,11.20
2006,09,14,00,46,11.20
2006,09,14,00,47,11.20
2006,09,14,00,48,11.20
2006,09,14,00,49,11.20
2006,09,14,00,50,11.20
2006,09,14,00,51,11.10
2006,09,14,00,52,11.10
2006,09,14,00,53,11.10
2006,09,14,00,54,11.10
2006,09,14,00,55,11.10
2006,09,14,00,56,11.10
2006,09,14,00,57,11.10
2006,09,14,00,58,11.20
2006,09,14,00,59,11.20
2006,09,14,01,00,11.20
2006,09,14,01,01,11.20
2006,09,14,01,02,11.20
2006,09,14,01,03,11.20
2006,09,14,01,04,11.20
2006,09,14,01,05,11.20
2006,09,14,01,06,11.20
2006,09,14,01,07,11.20
2006,09,14,01,08,11.20
2006,09,14,01,09,11.20
2006,09,14,01,10,11.20
2006,09,14,01,11,11.20
2006,09,14,01,12,11.20
2006,09,14,01,13,11.30
2006,09,14,01,14,11.30
2006,09,14,01,15,11.30
2006,09,14,01,16,11.30
2006,09,14,01,17,11.30
2006,09,14,01,18,11.30
2006,09,14,01,19,11.30
2006,09,14,01,20,11.30
2006,09,14,01,21,11.30
2006,09,14,01,22,11.30
2006,09,14,01,23,11.30
2006,09,14,01,24,11.30
2006,09,14,01,25,11.30
2006,09,14,01,26,11.30
2006,09,14,01,27,11.30
2006,09,14,01,28,11.40
2006,09,14,01,29,11.40
2006,09,14,01,30,11.30
2006,09,14,01,31,11.30
2006,09,14,01,32,11.30
2006,09,14,01,33,11.30
2006,09,14,01,34,11.30
2006,09,14,01,35,11.30
2006,09,14,01,36,11.30
2006,09,14,01,37,11.30
2006,09,14,01,38,11.30
2006,09,14,01,39,11.40
2006,09,14,01,40,11.40
2006,09,14,01,41,11.40
2006,09,14,01,42,11.40
2006,09,14,01,43,11.40
2006,09,14,01,44,11.40
2006,09,14,01,45,11.40
2006,09,14,01,46,11.40
2006,09,14,01,47,11.40
2006,09,14,01,48,11.40
2006,09,14,01,49,11.40
2006,09,14,01,50,11.40
2006,09,14,01,51,11.40
2006,09,14,01,52,11.40
2006,09,14,01,53,11.40
2006,09,14,01,54,11.40
2006,09,14,01,55,11.40
2006,09,14,01,56,11.40
2006,09,14,01,57,11.40
2006,09,14,01,58,11.40
2006,09,14,01,59,11.40
2006,09,14,02,00,11.40
2006,09,14,02,01,11.40
2006,09,14,02,02,11.40
2006,09,14,02,03,11.40
2006,09,14,02,04,11.40
2006,09,14,02,05,11.40
2006,09,14,02,06,11.40
2006,09,14,02,07,11.40
2006,09,14,02,08,11.40
2006,09,14,02,09,11.40
2006,09,14,02,10,11.40
2006,09,14,02,11,11.40
2006,09,14,02,12,11.40
2006,09,14,02,13,11.40
2006,09,14,02,14,11.40
2006,09,14,02,15,11.40
2006,09,14,02,16,11.40
2006,09,14,02,17,11.40
2006,09,14,02,18,11.40
2006,09,14,02,19,11.40
2006,09,14,02,20,11.40
2006,09,14,02,21,11.40
2006,09,14,02,22,11.40
2006,09,14,02,23,11.40
2006,09,14,02,24,11.40
2006,09,14,02,25,11.40
2006,09,14,02,26,11.40
2006,09,14,02,27,11.30
2006,09,14,02,28,11.30
2006,09,14,02,29,11.30
2006,09,14,02,30,11.30
2006,09,14,02,31,11.30
2006,09,14,02,32,11.30
2006,09,14,02,33,11.30
2006,09,14,02,34,11.30
2006,09,14,02,35,11.30
2006,09,14,02,36,11.30
2006,09,14,02,37,11.30
2006,09,14,02,38,11.30
2006,09,14,02,39,11.30
2006,09,14,02,40,11.30
2006,09,14,02,41,11.30
2006,09,14,02,42,11.30
2006,09,14,02,43,11.30
2006,09,14,02,44,11.30
2006,09,14,02,45,11.30
2006,09,14,02,46,11.30
2006,09,14,02,47,11.30
2006,09,14,02,48,11.30
2006,09,14,02,49,11.30
2006,09,14,02,50,11.30
2006,09,14,02,51,11.30
2006,09,14,02,52,11.30
2006,09,14,02,53,11.30
2006,09,14,02,54,11.30
2006,09,14,02,55,11.30
2006,09,14,02,56,11.30
2006,09,14,02,57,11.30
2006,09,14,02,58,11.30
2006,09,14,02,59,11.30
2006,09,14,03,00,11.30
2006,09,14,03,01,11.30
2006,09,14,03,02,11.30
2006,09,14,03,03,11.30
2006,09,14,03,04,11.30
2006,09,14,03,05,11.30
2006,09,14,03,06,11.20
2006,09,14,03,07,11.20
2006,09,14,03,08,11.20
2006,09,14,03,09,11.20
2006,09,14,03,10,11.20
2006,09,14,03,11,11.10
2006,09,14,03,12,11.10
2006,09,14,03,13,11.10
2006,09,14,03,14,11.10
2006,09,14,03,15,11.10
2006,09,14,03,16,11.10
2006,09,14,03,17,11.10
2006,09,14,03,18,11.10
2006,09,14,03,19,11.10
2006,09,14,03,20,11.10
2006,09,14,03,21,11.10
2006,09,14,03,22,11.10
2006,09,14,03,23,11.10
2006,09,14,03,24,11.10
2006,09,14,03,25,11.10
2006,09,14,03,26,11.10
2006,09,14,03,27,11.10
2006,09,14,03,28,11.10
2006,09,14,03,29,11.10
2006,09,14,03,30,11.10
2006,09,14,03,31,11.10
2006,09,14,03,32,11.10
2006,09,14,03,33,11.10
2006,09,14,03,34,11.10
2006,09,14,03,35,11.10
2006,09,14,03,36,11.10
2006,09,14,03,37,11.00
2006,09,14,03,38,10.90
2006,09,14,03,39,10.90
2006,09,14,03,40,10.90
2006,09,14,03,41,10.90
2006,09,14,03,42,10.90
2006,09,14,03,43,10.90
2006,09,14,03,44,10.90
2006,09,14,03,45,10.90
2006,09,14,03,46,10.90
2006,09,14,03,47,10.90
2006,09,14,03,48,10.90
2006,09,14,03,49,10.90
2006,09,14,03,50,10.90
2006,09,14,03,51,10.90
2006,09,14,03,52,10.90
2006,09,14,03,53,10.90
2006,09,14,03,54,10.90
2006,09,14,03,55,10.90
2006,09,14,03,56,10.90
2006,09,14,03,57,10.90
2006,09,14,03,58,10.80
2006,09,14,03,59,10.80
2006,09,14,04,00,10.80
2006,09,14,04,01,10.70
2006,09,14,04,02,10.70
2006,09,14,04,03,10.70
2006,09,14,04,04,10.70
2006,09,14,04,05,10.70
2006,09,14,04,06,10.70
2006,09,14,04,07,10.70
2006,09,14,04,08,10.70
2006,09,14,04,09,10.70
2006,09,14,04,10,10.80
2006,09,14,04,11,10.80
2006,09,14,04,12,10.80
2006,09,14,04,13,10.80
2006,09,14,04,14,10.80
2006,09,14,04,15,10.70
2006,09,14,04,16,10.70
2006,09,14,04,17,10.70
2006,09,14,04,18,10.70
2006,09,14,04,19,10.60
2006,09,14,04,20,10.60
2006,09,14,04,21,10.60
2006,09,14,04,22,10.60
2006,09,14,04,23,10.60
2006,09,14,04,24,10.60
2006,09,14,04,25,10.50
2006,09,14,04,26,10.40
2006,09,14,04,27,10.40
2006,09,14,04,28,10.40
2006,09,14,04,29,10.40
2006,09,14,04,30,10.30
2006,09,14,04,31,10.30
2006,09,14,04,32,10.20
2006,09,14,04,33,10.20
2006,09,14,04,34,10.20
2006,09,14,04,35,10.10
2006,09,14,04,36,10.10
2006,09,14,04,37,10.10
2006,09,14,04,38,10.00
2006,09,14,04,39,9.90
2006,09,14,04,40,9.90
2006,09,14,04,41,9.90
2006,09,14,04,42,9.90
2006,09,14,04,43,9.80
2006,09,14,04,44,9.80
2006,09,14,04,45,9.70
2006,09,14,04,46,9.70
2006,09,14,04,47,9.70
2006,09,14,04,48,9.60
2006,09,14,04,49,9.60
2006,09,14,04,50,9.50
2006,09,14,04,51,9.50
2006,09,14,04,52,9.50
2006,09,14,04,53,9.40
2006,09,14,04,54,9.40
2006,09,14,04,55,9.40
2006,09,14,04,56,9.40
2006,09,14,04,57,9.30
2006,09,14,04,58,9.30
2006,09,14,04,59,9.30
2006,09,14,05,00,9.30
2006,09,14,05,01,9.20
2006,09,14,05,02,9.20
2006,09,14,05,03,9.20
2006,09,14,05,04,9.20
2006,09,14,05,05,9.20
2006,09,14,05,06,9.20
2006,09,14,05,07,9.20
2006,09,14,05,08,9.20
2006,09,14,05,09,9.20
2006,09,14,05,10,9.20
2006,09,14,05,11,9.20
2006,09,14,05,12,9.20
2006,09,14,05,13,9.10
2006,09,14,05,14,9.10
2006,09,14,05,15,9.10
2006,09,14,05,16,9.10
2006,09,14,05,17,9.10
2006,09,14,05,18,9.10
2006,09,14,05,19,9.00
2006,09,14,05,20,9.00
2006,09,14,05,21,9.00
2006,09,14,05,22,8.90
2006,09,14,05,23,8.90
2006,09,14,05,24,8.90
2006,09,14,05,25,8.90
2006,09,14,05,26,8.90
2006,09,14,05,27,8.90
2006,09,14,05,28,8.90
2006,09,14,05,29,8.90
2006,09,14,05,30,8.80
2006,09,14,05,31,8.80
2006,09,14,05,32,8.80
2006,09,14,05,33,8.80
2006,09,14,05,34,8.70
2006,09,14,05,35,8.70
2006,09,14,05,36,8.70
2006,09,14,05,37,8.70
2006,09,14,05,38,8.70
2006,09,14,05,39,8.70
2006,09,14,05,40,8.70
2006,09,14,05,41,8.70
2006,09,14,05,42,8.70
2006,09,14,05,43,8.60
2006,09,14,05,44,8.60
2006,09,14,05,45,8.60
2006,09,14,05,46,8.60
2006,09,14,05,47,8.60
2006,09,14,05,48,8.50
2006,09,14,05,49,8.50
2006,09,14,05,50,8.50
2006,09,14,05,51,8.50
2006,09,14,05,52,8.40
2006,09,14,05,53,8.40
2006,09,14,05,54,8.40
2006,09,14,05,55,8.30
2006,09,14,05,56,8.30
2006,09,14,05,57,8.30
2006,09,14,05,58,8.30
2006,09,14,05,59,8.20
2006,09,14,06,00,8.20
2006,09,14,06,01,8.20
2006,09,14,06,02,8.20
2006,09,14,06,03,8.20
2006,09,14,06,04,8.20
2006,09,14,06,05,8.20
2006,09,14,06,06,8.20
2006,09,14,06,07,8.20
2006,09,14,06,08,8.20
2006,09,14,06,09,8.20
2006,09,14,06,10,8.20
2006,09,14,06,11,8.20
2006,09,14,06,12,8.20
2006,09,14,06,13,8.20
2006,09,14,06,14,8.20
2006,09,14,06,15,8.10
2006,09,14,06,16,8.10
2006,09,14,06,17,8.10
2006,09,14,06,18,8.00
2006,09,14,06,19,8.00
2006,09,14,06,20,8.00
2006,09,14,06,21,7.90
2006,09,14,06,22,7.90
2006,09,14,06,23,7.90
2006,09,14,06,24,7.90
2006,09,14,06,25,7.90
2006,09,14,06,26,7.90
2006,09,14,06,27,7.90
2006,09,14,06,28,7.90
2006,09,14,06,29,7.90
2006,09,14,06,30,7.90
2006,09,14,06,31,7.90
2006,09,14,06,32,7.90
2006,09,14,06,33,7.80
2006,09,14,06,34,7.80
2006,09,14,06,35,7.80
2006,09,14,06,36,7.80
2006,09,14,06,37,7.80
2006,09,14,06,38,7.80
2006,09,14,06,39,7.80
2006,09,14,06,40,7.80
2006,09,14,06,41,7.80
2006,09,14,06,42,7.70
2006,09,14,06,43,7.70
2006,09,14,06,44,7.70
2006,09,14,06,45,7.70
2006,09,14,06,46,7.70
2006,09,14,06,47,7.60
2006,09,14,06,48,7.60
2006,09,14,06,49,7.60
2006,09,14,06,50,7.60
2006,09,14,06,51,7.60
2006,09,14,06,52,7.60
2006,09,14,06,53,7.60
2006,09,14,06,54,7.60
2006,09,14,06,55,7.60
2006,09,14,06,56,7.60
2006,09,14,06,57,7.60
2006,09,14,06,58,7.60
2006,09,14,06,59,7.50
2006,09,14,07,00,7.50
2006,09,14,07,01,7.50
2006,09,14,07,02,7.50
2006,09,14,07,03,7.50
2006,09,14,07,04,7.40
2006,09,14,07,05,7.40
2006,09,14,07,06,7.40
2006,09,14,07,07,7.40
2006,09,14,07,08,7.40
2006,09,14,07,09,7.40
2006,09,14,07,10,7.30
2006,09,14,07,11,7.30
2006,09,14,07,12,7.30
2006,09,14,07,13,7.30
2006,09,14,07,14,7.30
2006,09,14,07,15,7.30
2006,09,14,07,16,7.30
2006,09,14,07,17,7.30
2006,09,14,07,18,7.30
2006,09,14,07,19,7.30
2006,09,14,07,20,7.30
2006,09,14,07,21,7.30
2006,09,14,07,22,7.30
2006,09,14,07,23,7.30
2006,09,14,07,24,7.30
2006,09,14,07,25,7.30
2006,09,14,07,26,7.30
2006,09,14,07,27,7.30
2006,09,14,07,28,7.30
2006,09,14,07,29,7.30
2006,09,14,07,30,7.30
2006,09,14,07,31,7.30
2006,09,14,07,32,7.30
2006,09,14,07,33,7.30
2006,09,14,07,34,7.30
2006,09,14,07,35,7.30
2006,09,14,07,36,7.30
2006,09,14,07,37,7.30
2006,09,14,07,38,7.30
2006,09,14,07,39,7.20
2006,09,14,07,40,7.20
2006,09,14,07,41,7.20
2006,09,14,07,42,7.20
2006,09,14,07,43,7.20
2006,09,14,07,44,7.20
2006,09,14,07,45,7.20
2006,09,14,07,46,7.20
2006,09,14,07,47,7.20
2006,09,14,07,48,7.20
2006,09,14,07,49,7.20
2006,09,14,07,50,7.20
2006,09,14,07,51,7.20
2006,09,14,07,52,7.30
2006,09,14,07,53,7.30
2006,09,14,07,54,7.30
2006,09,14,07,55,7.30
2006,09,14,07,56,7.30
2006,09,14,07,57,7.30
2006,09,14,07,58,7.30
2006,09,14,07,59,7.30
2006,09,14,08,00,7.30
2006,09,14,08,01,7.30
2006,09,14,08,02,7.30
2006,09,14,08,03,7.30
2006,09,14,08,04,7.30
2006,09,14,08,05,7.30
2006,09,14,08,06,7.30
2006,09,14,08,07,7.30
2006,09,14,08,08,7.30
2006,09,14,08,09,7.30
2006,09,14,08,10,7.30
2006,09,14,08,11,7.40
2006,09,14,08,12,7.40
2006,09,14,08,13,7.40
2006,09,14,08,14,7.40
2006,09,14,08,15,7.50
2006,09,14,08,16,7.50
2006,09,14,08,17,7.50
2006,09,14,08,18,7.60
2006,09,14,08,19,7.60
2006,09,14,08,20,7.70
2006,09,14,08,21,7.70
2006,09,14,08,22,7.80
2006,09,14,08,23,7.80
2006,09,14,08,24,7.80
2006,09,14,08,25,7.90
2006,09,14,08,26,7.90
2006,09,14,08,27,8.00
2006,09,14,08,28,8.00
2006,09,14,08,29,8.10
2006,09,14,08,30,8.10
2006,09,14,08,31,8.20
2006,09,14,08,32,8.20
2006,09,14,08,33,8.30
2006,09,14,08,34,8.40
2006,09,14,08,35,8.40
2006,09,14,08,36,8.50
2006,09,14,08,37,8.50
2006,09,14,08,38,8.60
2006,09,14,08,39,8.70
2006,09,14,08,40,8.70
2006,09,14,08,41,8.80
2006,09,14,08,42,8.90
2006,09,14,08,43,9.00
2006,09,14,08,44,9.10
2006,09,14,08,45,9.20
2006,09,14,08,46,9.30
2006,09,14,08,47,9.40
2006,09,14,08,48,9.50
2006,09,14,08,49,9.60
2006,09,14,08,50,9.70
2006,09,14,08,51,9.80
2006,09,14,08,52,10.00
2006,09,14,08,53,10.10
2006,09,14,08,54,10.30
2006,09,14,08,55,10.50
2006,09,14,08,56,10.60
2006,09,14,08,57,10.80
2006,09,14,08,58,10.90
2006,09,14,08,59,11.10
2006,09,14,09,00,11.20
2006,09,14,09,01,11.30
2006,09,14,09,02,11.40
2006,09,14,09,03,11.50
2006,09,14,09,04,11.60
2006,09,14,09,05,11.70
2006,09,14,09,06,11.80
2006,09,14,09,07,11.80
2006,09,14,09,08,11.90
2006,09,14,09,09,11.90
2006,09,14,09,10,12.00
2006,09,14,09,11,12.10
2006,09,14,09,12,12.10
2006,09,14,09,13,12.20
2006,09,14,09,14,12.20
2006,09,14,09,15,12.30
2006,09,14,09,16,12.30
2006,09,14,09,17,12.40
2006,09,14,09,18,12.50
2006,09,14,09,19,12.50
2006,09,14,09,20,12.60
2006,09,14,09,21,12.70
2006,09,14,09,22,12.80
2006,09,14,09,23,12.80
2006,09,14,09,24,12.90
2006,09,14,09,25,13.00
2006,09,14,09,26,13.00
2006,09,14,09,27,13.10
2006,09,14,09,28,13.10
2006,09,14,09,29,13.20
2006,09,14,09,30,13.30
2006,09,14,09,31,13.30
2006,09,14,09,32,13.30
2006,09,14,09,33,13.30
2006,09,14,09,34,13.30
2006,09,14,09,35,13.30
2006,09,14,09,36,13.30
2006,09,14,09,37,13.40
2006,09,14,09,38,13.40
2006,09,14,09,39,13.50
2006,09,14,09,40,13.50
2006,09,14,09,41,13.60
2006,09,14,09,42,13.60
2006,09,14,09,43,13.60
2006,09,14,09,44,13.70
2006,09,14,09,45,13.70
2006,09,14,09,46,13.70
2006,09,14,09,47,13.80
2006,09,14,09,48,13.80
2006,09,14,09,49,13.90
2006,09,14,09,50,13.90
2006,09,14,09,51,13.90
2006,09,14,09,52,13.90
2006,09,14,09,53,13.90
2006,09,14,09,54,13.90
2006,09,14,09,55,13.90
2006,09,14,09,56,14.00
2006,09,14,09,57,14.00
2006,09,14,09,58,14.00
2006,09,14,09,59,14.00
2006,09,14,10,00,14.00
2006,09,14,10,01,14.10
2006,09,14,10,02,14.10
2006,09,14,10,03,14.20
2006,09,14,10,04,14.20
2006,09,14,10,05,14.20
2006,09,14,10,06,14.20
2006,09,14,10,07,14.20
2006,09,14,10,08,14.20
2006,09,14,10,09,14.20
2006,09,14,10,10,14.10
2006,09,14,10,11,14.10
2006,09,14,10,12,14.00
2006,09,14,10,13,13.90
2006,09,14,10,14,13.90
2006,09,14,10,15,13.80
2006,09,14,10,16,13.70
2006,09,14,10,17,13.60
2006,09,14,10,18,13.60
2006,09,14,10,19,13.60
2006,09,14,10,20,13.60
2006,09,14,10,21,13.60
2006,09,14,10,22,13.60
2006,09,14,10,23,13.60
2006,09,14,10,24,13.50
2006,09,14,10,25,13.50
2006,09,14,10,26,13.50
2006,09,14,10,27,13.40
2006,09,14,10,28,13.40
2006,09,14,10,29,13.30
2006,09,14,10,30,13.30
2006,09,14,10,31,13.30
2006,09,14,10,32,13.20
2006,09,14,10,33,13.20
2006,09,14,10,34,13.20
2006,09,14,10,35,13.20
2006,09,14,10,36,13.20
2006,09,14,10,37,13.20
2006,09,14,10,38,13.20
2006,09,14,10,39,13.20
2006,09,14,10,40,13.20
2006,09,14,10,41,13.20
2006,09,14,10,42,13.30
2006,09,14,10,43,13.30
2006,09,14,10,44,13.30
2006,09,14,10,45,13.20
2006,09,14,10,46,13.20
2006,09,14,10,47,13.10
2006,09,14,10,48,13.10
2006,09,14,10,49,13.10
2006,09,14,10,50,13.10
2006,09,14,10,51,13.00
2006,09,14,10,52,13.00
2006,09,14,10,53,13.00
2006,09,14,10,54,13.00
2006,09,14,10,55,13.00
2006,09,14,10,56,12.90
2006,09,14,10,57,12.90
2006,09,14,10,58,12.80
2006,09,14,10,59,12.80
2006,09,14,11,00,12.80
2006,09,14,11,01,12.80
2006,09,14,11,02,12.80
2006,09,14,11,03,12.70
2006,09,14,11,04,12.70
2006,09,14,11,05,12.70
2006,09,14,11,06,12.60
2006,09,14,11,07,12.60
2006,09,14,11,08,12.60
2006,09,14,11,09,12.60
2006,09,14,11,10,12.60
2006,09,14,11,11,12.60
2006,09,14,11,12,12.60
2006,09,14,11,13,12.60
2006,09,14,11,14,12.60
2006,09,14,11,15,12.70
2006,09,14,11,16,12.70
2006,09,14,11,17,12.80
2006,09,14,11,18,12.80
2006,09,14,11,19,12.80
2006,09,14,11,20,12.80
2006,09,14,11,21,12.90
2006,09,14,11,22,12.90
2006,09,14,11,23,13.00
2006,09,14,11,24,13.00
2006,09,14,11,25,13.00
2006,09,14,11,26,13.00
2006,09,14,11,27,12.90
2006,09,14,11,28,12.80
2006,09,14,11,29,12.80
2006,09,14,11,30,12.70
2006,09,14,11,31,12.70
2006,09,14,11,32,12.70
2006,09,14,11,33,12.70
2006,09,14,11,34,12.70
2006,09,14,11,35,12.70
2006,09,14,11,36,12.70
2006,09,14,11,37,12.70
2006,09,14,11,38,12.70
2006,09,14,11,39,12.70
2006,09,14,11,40,12.80
2006,09,14,11,41,12.80
2006,09,14,11,42,12.80
2006,09,14,11,43,12.80
2006,09,14,11,44,12.80
2006,09,14,11,45,12.80
2006,09,14,11,46,12.80
2006,09,14,11,47,12.80
2006,09,14,11,48,12.80
2006,09,14,11,49,12.80
2006,09,14,11,50,12.90
2006,09,14,11,51,12.90
2006,09,14,11,52,13.00
2006,09,14,11,53,13.10
2006,09,14,11,54,13.20
2006,09,14,11,55,13.30
2006,09,14,11,56,13.50
2006,09,14,11,57,13.50
2006,09,14,11,58,13.60
2006,09,14,11,59,13.60
2006,09,14,12,00,13.60
2006,09,14,12,01,13.60
2006,09,14,12,02,13.60
2006,09,14,12,03,13.60
2006,09,14,12,04,13.60
2006,09,14,12,05,13.60
2006,09,14,12,06,13.60
2006,09,14,12,07,13.50
2006,09,14,12,08,13.50
2006,09,14,12,09,13.60
2006,09,14,12,10,13.60
2006,09,14,12,11,13.70
2006,09,14,12,12,13.70
2006,09,14,12,13,13.70
2006,09,14,12,14,13.80
2006,09,14,12,15,13.90
2006,09,14,12,16,14.00
2006,09,14,12,17,14.10
2006,09,14,12,18,14.20
2006,09,14,12,19,14.30
2006,09,14,12,20,14.40
2006,09,14,12,21,14.40
2006,09,14,12,22,14.40
2006,09,14,12,23,14.40
2006,09,14,12,24,14.40
2006,09,14,12,25,14.40
2006,09,14,12,26,14.40
2006,09,14,12,27,14.40
2006,09,14,12,28,14.30
2006,09,14,12,29,14.30
2006,09,14,12,30,14.40
2006,09,14,12,31,14.40
2006,09,14,12,32,14.30
2006,09,14,12,33,14.20
2006,09,14,12,34,14.20
2006,09,14,12,35,14.20
2006,09,14,12,36,14.30
2006,09,14,12,37,14.40
2006,09,14,12,38,14.50
2006,09,14,12,39,14.40
2006,09,14,12,40,14.50
2006,09,14,12,41,14.50
2006,09,14,12,42,14.50
2006,09,14,12,43,14.50
2006,09,14,12,44,14.60
2006,09,14,12,45,14.70
2006,09,14,12,46,14.60
2006,09,14,12,47,14.60
2006,09,14,12,48,14.60
2006,09,14,12,49,14.70
2006,09,14,12,50,14.60
2006,09,14,12,51,14.40
2006,09,14,12,52,14.30
2006,09,14,12,53,14.20
2006,09,14,12,54,14.10
2006,09,14,12,55,14.20
2006,09,14,12,56,14.20
2006,09,14,12,57,14.30
2006,09,14,12,58,14.30
2006,09,14,12,59,14.20
2006,09,14,13,00,14.00
2006,09,14,13,01,13.90
2006,09,14,13,02,13.90
2006,09,14,13,03,13.90
2006,09,14,13,04,13.90
2006,09,14,13,05,14.00
2006,09,14,13,06,14.10
2006,09,14,13,07,14.20
2006,09,14,13,08,14.20
2006,09,14,13,09,14.30
2006,09,14,13,10,14.30
2006,09,14,13,11,14.40
2006,09,14,13,12,14.50
2006,09,14,13,13,14.60
2006,09,14,13,14,14.80
2006,09,14,13,15,14.80
2006,09,14,13,16,14.90
2006,09,14,13,17,15.00
2006,09,14,13,18,15.20
2006,09,14,13,19,15.20
2006,09,14,13,20,15.20
2006,09,14,13,21,15.10
2006,09,14,13,22,14.80
2006,09,14,13,23,14.70
2006,09,14,13,24,14.60
2006,09,14,13,25,14.60
2006,09,14,13,26,14.50
2006,09,14,13,27,14.50
2006,09,14,13,28,14.50
2006,09,14,13,29,14.50
2006,09,14,13,30,14.60
2006,09,14,13,31,14.70
2006,09,14,13,32,14.80
2006,09,14,13,33,14.80
2006,09,14,13,34,14.80
2006,09,14,13,35,14.60
2006,09,14,13,36,14.30
2006,09,14,13,37,14.20
2006,09,14,13,38,14.10
2006,09,14,13,39,14.10
2006,09,14,13,40,14.10
2006,09,14,13,41,14.20
2006,09,14,13,42,14.20
2006,09,14,13,43,14.40
2006,09,14,13,44,14.60
2006,09,14,13,45,14.80
2006,09,14,13,46,14.80
2006,09,14,13,47,14.80
2006,09,14,13,48,14.80
2006,09,14,13,49,14.70
2006,09,14,13,50,14.60
2006,09,14,13,51,14.60
2006,09,14,13,52,14.60
2006,09,14,13,53,14.70
2006,09,14,13,54,14.80
2006,09,14,13,55,14.80
2006,09,14,13,56,14.80
2006,09,14,13,57,14.60
2006,09,14,13,58,14.50
2006,09,14,13,59,14.40
2006,09,14,14,00,14.50
2006,09,14,14,01,14.60
2006,09,14,14,02,14.60
2006,09,14,14,03,14.60
2006,09,14,14,04,14.70
2006,09,14,14,05,14.80
2006,09,14,14,06,14.90
2006,09,14,14,07,14.90
2006,09,14,14,08,14.80
2006,09,14,14,09,15.00
2006,09,14,14,10,15.20
2006,09,14,14,11,15.20
2006,09,14,14,12,15.20
2006,09,14,14,13,15.30
2006,09,14,14,14,15.20
2006,09,14,14,15,15.30
2006,09,14,14,16,15.30
2006,09,14,14,17,15.30
2006,09,14,14,18,15.20
2006,09,14,14,19,15.20
2006,09,14,14,20,15.20
2006,09,14,14,21,15.30
2006,09,14,14,22,15.30
2006,09,14,14,23,15.30
2006,09,14,14,24,15.20
2006,09,14,14,25,15.10
2006,09,14,14,26,15.10
2006,09,14,14,27,15.10
2006,09,14,14,28,15.10
2006,09,14,14,29,15.20
2006,09,14,14,30,15.30
2006,09,14,14,31,15.40
2006,09,14,14,32,15.40
2006,09,14,14,33,15.40
2006,09,14,14,34,15.50
2006,09,14,14,35,15.60
2006,09,14,14,36,15.50
2006,09,14,14,37,15.40
2006,09,14,14,38,15.30
2006,09,14,14,39,15.30
2006,09,14,14,40,15.30
2006,09,14,14,41,15.30
2006,09,14,14,42,15.30
2006,09,14,14,43,15.20
2006,09,14,14,44,15.10
2006,09,14,14,45,14.90
2006,09,14,14,46,14.70
2006,09,14,14,47,14.50
2006,09,14,14,48,14.40
2006,09,14,14,49,14.20
2006,09,14,14,50,14.20
2006,09,14,14,51,14.20
2006,09,14,14,52,14.20
2006,09,14,14,53,14.30
2006,09,14,14,54,14.40
2006,09,14,14,55,14.50
2006,09,14,14,56,14.60
2006,09,14,14,57,14.70
2006,09,14,14,58,14.80
2006,09,14,14,59,14.90
2006,09,14,15,00,14.90
2006,09,14,15,01,15.00
2006,09,14,15,02,15.10
2006,09,14,15,03,15.30
2006,09,14,15,04,15.30
2006,09,14,15,05,15.30
2006,09,14,15,06,15.30
2006,09,14,15,07,15.20
2006,09,14,15,08,15.00
2006,09,14,15,09,15.00
2006,09,14,15,10,14.80
2006,09,14,15,11,14.70
2006,09,14,15,12,14.60
2006,09,14,15,13,14.60
2006,09,14,15,14,14.60
2006,09,14,15,15,14.60
2006,09,14,15,16,14.60
2006,09,14,15,17,14.70
2006,09,14,15,18,14.80
2006,09,14,15,19,14.80
2006,09,14,15,20,14.80
2006,09,14,15,21,14.80
2006,09,14,15,22,14.80
2006,09,14,15,23,14.80
2006,09,14,15,24,14.80
2006,09,14,15,25,14.90
2006,09,14,15,26,15.00
2006,09,14,15,27,15.10
2006,09,14,15,28,15.20
2006,09,14,15,29,15.30
2006,09,14,15,30,15.40
2006,09,14,15,31,15.40
2006,09,14,15,32,15.40
2006,09,14,15,33,15.40
2006,09,14,15,34,15.40
2006,09,14,15,35,15.40
2006,09,14,15,36,15.30
2006,09,14,15,37,15.30
2006,09,14,15,38,15.30
2006,09,14,15,39,15.30
2006,09,14,15,40,15.40
2006,09,14,15,41,15.50
2006,09,14,15,42,15.50
2006,09,14,15,43,15.60
2006,09,14,15,44,15.60
2006,09,14,15,45,15.60
2006,09,14,15,46,15.60
2006,09,14,15,47,15.60
2006,09,14,15,48,15.60
2006,09,14,15,49,15.60
2006,09,14,15,50,15.50
2006,09,14,15,51,15.50
2006,09,14,15,52,15.50
2006,09,14,15,53,15.60
2006,09,14,15,54,15.60
2006,09,14,15,55,15.50
2006,09,14,15,56,15.50
2006,09,14,15,57,15.50
2006,09,14,15,58,15.50
2006,09,14,15,59,15.50
2006,09,14,16,00,15.40
2006,09,14,16,01,15.30
2006,09,14,16,02,15.30
2006,09,14,16,03,15.30
2006,09,14,16,04,15.30
2006,09,14,16,05,15.30
2006,09,14,16,06,15.30
2006,09,14,16,07,15.30
2006,09,14,16,08,15.30
2006,09,14,16,09,15.30
2006,09,14,16,10,15.30
2006,09,14,16,11,15.20
2006,09,14,16,12,15.20
2006,09,14,16,13,15.20
2006,09,14,16,14,15.10
2006,09,14,16,15,15.10
2006,09,14,16,16,15.10
2006,09,14,16,17,15.00
2006,09,14,16,18,15.00
2006,09,14,16,19,14.90
2006,09,14,16,20,14.90
2006,09,14,16,21,14.80
2006,09,14,16,22,14.80
2006,09,14,16,23,14.80
2006,09,14,16,24,14.70
2006,09,14,16,25,14.70
2006,09,14,16,26,14.70
2006,09,14,16,27,14.70
2006,09,14,16,28,14.60
2006,09,14,16,29,14.60
2006,09,14,16,30,14.60
2006,09,14,16,31,14.60
2006,09,14,16,32,14.60
2006,09,14,16,33,14.60
2006,09,14,16,34,14.60
2006,09,14,16,35,14.50
2006,09,14,16,36,14.50
2006,09,14,16,37,14.60
2006,09,14,16,38,14.60
2006,09,14,16,39,14.60
2006,09,14,16,40,14.70
2006,09,14,16,41,14.70
2006,09,14,16,42,14.80
2006,09,14,16,43,14.80
2006,09,14,16,44,14.80
2006,09,14,16,45,14.80
2006,09,14,16,46,14.80
2006,09,14,16,47,14.80
2006,09,14,16,48,14.80
2006,09,14,16,49,14.80
2006,09,14,16,50,14.80
2006,09,14,16,51,14.80
2006,09,14,16,52,14.80
2006,09,14,16,53,14.80
2006,09,14,16,54,14.80
2006,09,14,16,55,14.80
2006,09,14,16,56,14.80
2006,09,14,16,57,14.80
2006,09,14,16,58,14.80
2006,09,14,16,59,14.80
2006,09,14,17,00,14.70
2006,09,14,17,01,14.70
2006,09,14,17,02,14.60
2006,09,14,17,03,14.60
2006,09,14,17,04,14.60
2006,09,14,17,05,14.60
2006,09,14,17,06,14.60
2006,09,14,17,07,14.60
2006,09,14,17,08,14.60
2006,09,14,17,09,14.60
2006,09,14,17,10,14.70
2006,09,14,17,11,14.60
2006,09,14,17,12,14.60
2006,09,14,17,13,14.60
2006,09,14,17,14,14.60
2006,09,14,17,15,14.50
2006,09,14,17,16,14.50
2006,09,14,17,17,14.50
2006,09,14,17,18,14.40
2006,09,14,17,19,14.40
2006,09,14,17,20,14.40
2006,09,14,17,21,14.30
2006,09,14,17,22,14.30
2006,09,14,17,23,14.30
2006,09,14,17,24,14.30
2006,09,14,17,25,14.30
2006,09,14,17,26,14.30
2006,09,14,17,27,14.30
2006,09,14,17,28,14.30
2006,09,14,17,29,14.30
2006,09,14,17,30,14.30